TimeEST,TemperatureF,Dew PointF,Humidity,Sea Level PressureIn,VisibilityMPH,Wind Direction,Wind SpeedMPH,Gust SpeedMPH,PrecipitationIn,Events,Conditions,WindDirDegrees,DateUTC
12:17 AM,41.0,39.2,93,29.49,6.0,SW,10.4,-,0.01,Rain,Light Rain,220,2013-02-27 05:17:00
12:35 AM,41.0,39.2,93,29.49,9.0,SW,10.4,18.4,0.02,Rain,Light Rain,220,2013-02-27 05:35:00
12:53 AM,39.9,39.9,100,29.51,9.0,SW,12.7,-,0.03,Rain,Light Rain,220,2013-02-27 05:53:00
1:20 AM,39.2,39.2,100,29.50,8.0,SW,11.5,-,0.00,Rain,Light Rain,220,2013-02-27 06:20:00
1:33 AM,39.2,39.2,100,29.51,10.0,SSW,12.7,19.6,0.00,,Overcast,210,2013-02-27 06:33:00
1:53 AM,39.0,39.0,100,29.53,10.0,SW,15.0,21.9,0.01,Rain,Light Rain,220,2013-02-27 06:53:00
2:53 AM,39.0,37.0,93,29.54,10.0,SW,13.8,20.7,0.00,,Overcast,220,2013-02-27 07:53:00
3:53 AM,37.9,36.0,93,29.54,10.0,SW,9.2,20.7,N/A,,Overcast,220,2013-02-27 08:53:00
5:00 AM,37.4,35.6,93,29.55,10.0,SSW,11.5,18.4,N/A,,Overcast,210,2013-02-27 10:00:00
5:11 AM,37.4,35.6,93,29.55,10.0,SW,10.4,-,0.00,,Overcast,220,2013-02-27 10:11:00
5:53 AM,37.0,36.0,96,29.57,10.0,SW,11.5,18.4,0.00,,Overcast,220,2013-02-27 10:53:00
6:53 AM,37.9,36.0,93,29.59,10.0,SW,13.8,21.9,N/A,,Overcast,220,2013-02-27 11:53:00
7:17 AM,37.4,35.6,93,29.58,10.0,SSW,10.4,24.2,N/A,,Overcast,210,2013-02-27 12:17:00
7:50 AM,37.4,35.6,93,29.59,10.0,SW,11.5,-,N/A,,Overcast,220,2013-02-27 12:50:00
7:53 AM,37.0,36.0,96,29.61,10.0,SW,11.5,19.6,N/A,,Overcast,220,2013-02-27 12:53:00
8:01 AM,37.4,35.6,93,29.60,10.0,SW,11.5,18.4,N/A,,Overcast,230,2013-02-27 13:01:00
8:12 AM,37.4,35.6,93,29.61,10.0,SW,12.7,19.6,N/A,,Overcast,230,2013-02-27 13:12:00
8:37 AM,37.4,33.8,87,29.62,10.0,SW,16.1,24.2,N/A,,Overcast,230,2013-02-27 13:37:00
8:53 AM,37.0,35.1,93,29.64,10.0,SW,15.0,23.0,N/A,,Overcast,220,2013-02-27 13:53:00
9:53 AM,37.0,34.0,89,29.64,10.0,SW,17.3,25.3,N/A,,Overcast,230,2013-02-27 14:53:00
10:05 AM,37.4,33.8,87,29.63,10.0,WSW,12.7,-,N/A,,Overcast,240,2013-02-27 15:05:00
10:15 AM,35.6,33.8,93,29.64,6.0,WSW,15.0,21.9,N/A,,Overcast,240,2013-02-27 15:15:00
10:32 AM,35.6,33.8,93,29.64,10.0,WSW,16.1,25.3,0.00,,Overcast,240,2013-02-27 15:32:00
10:53 AM,36.0,33.1,89,29.66,7.0,SW,17.3,25.3,0.00,,Overcast,220,2013-02-27 15:53:00
11:11 AM,35.6,32.0,87,29.64,10.0,WSW,15.0,-,0.00,,Overcast,240,2013-02-27 16:11:00
11:39 AM,35.6,33.8,93,29.64,4.0,SW,13.8,20.7,0.00,Snow,Light Snow,220,2013-02-27 16:39:00
11:49 AM,35.6,33.8,93,29.64,5.0,SW,11.5,23.0,0.00,Snow,Light Snow,220,2013-02-27 16:49:00
11:53 AM,35.1,34.0,96,29.66,5.0,SW,13.8,21.9,0.01,Snow,Light Snow,220,2013-02-27 16:53:00
12:07 PM,35.6,33.8,93,29.64,6.0,SW,13.8,24.2,0.00,Snow,Light Snow,230,2013-02-27 17:07:00
12:53 PM,35.1,33.1,92,29.64,9.0,SW,9.2,-,0.00,,Overcast,220,2013-02-27 17:53:00
1:26 PM,33.8,33.8,100,29.62,10.0,SW,11.5,-,0.00,,Overcast,230,2013-02-27 18:26:00
1:38 PM,35.6,33.8,93,29.63,10.0,WSW,18.4,-,0.00,,Overcast,240,2013-02-27 18:38:00
1:53 PM,35.1,32.0,89,29.65,8.0,SW,15.0,33.4,0.00,Snow,Light Snow,220,2013-02-27 18:53:00
2:06 PM,33.8,30.2,87,29.63,10.0,WSW,20.7,27.6,N/A,,Overcast,240,2013-02-27 19:06:00
2:26 PM,33.8,30.2,87,29.63,10.0,WSW,16.1,23.0,N/A,,Overcast,250,2013-02-27 19:26:00
2:42 PM,33.8,30.2,87,29.63,8.0,SW,13.8,21.9,N/A,,Overcast,230,2013-02-27 19:42:00
2:53 PM,34.0,30.9,89,29.65,10.0,SW,12.7,23.0,N/A,,Overcast,230,2013-02-27 19:53:00
3:53 PM,34.0,30.0,85,29.67,8.0,WSW,16.1,27.6,0.00,,Overcast,240,2013-02-27 20:53:00
4:42 PM,33.8,30.2,87,29.66,2.0,WSW,16.1,25.3,0.00,Snow,Light Snow,240,2013-02-27 21:42:00
4:50 PM,33.8,30.2,87,29.66,1.8,SW,13.8,24.2,0.00,Snow,Light Snow,230,2013-02-27 21:50:00
4:53 PM,33.1,30.9,92,29.68,2.0,SW,13.8,24.2,0.00,Snow,Light Snow,230,2013-02-27 21:53:00
5:06 PM,33.8,30.2,87,29.66,1.5,SW,12.7,20.7,0.00,Snow,Light Snow,230,2013-02-27 22:06:00
5:19 PM,32.0,30.2,93,29.66,1.5,SW,13.8,20.7,0.00,Snow,Light Snow,230,2013-02-27 22:19:00
5:26 PM,32.0,32.0,100,29.67,1.8,SW,10.4,-,0.00,Snow,Light Snow,220,2013-02-27 22:26:00
5:37 PM,32.0,30.2,93,29.67,2.5,SW,13.8,20.7,0.00,Snow,Light Snow,230,2013-02-27 22:37:00
5:46 PM,32.0,30.2,93,29.67,4.0,SW,13.8,21.9,0.00,Snow,Light Snow,220,2013-02-27 22:46:00
5:53 PM,32.0,30.9,96,29.70,4.0,SW,12.7,-,0.00,Snow,Light Snow,230,2013-02-27 22:53:00
6:09 PM,32.0,30.2,93,29.68,3.0,SW,9.2,-,0.00,Snow,Light Snow,220,2013-02-27 23:09:00
6:22 PM,32.0,30.2,93,29.68,3.0,SW,12.7,18.4,0.00,Snow,Light Snow,220,2013-02-27 23:22:00
6:53 PM,32.0,30.0,92,29.70,6.0,SW,12.7,-,0.00,Snow,Light Snow,230,2013-02-27 23:53:00
7:53 PM,32.0,30.9,96,29.71,4.0,SSW,10.4,-,0.00,Snow,Light Snow,210,2013-02-28 00:53:00
8:08 PM,32.0,30.2,93,29.68,3.0,SW,9.2,-,0.00,Snow,Light Snow,220,2013-02-28 01:08:00
9:53 PM,32.0,30.9,96,29.70,6.0,SW,15.0,19.6,0.00,,Overcast,220,2013-02-28 02:53:00
10:02 PM,32.0,30.2,93,29.68,7.0,SW,15.0,23.0,N/A,,Overcast,230,2013-02-28 03:02:00
10:53 PM,30.9,30.0,96,29.70,8.0,WSW,13.8,-,N/A,,Overcast,240,2013-02-28 03:53:00
11:00 PM,30.2,30.2,100,29.68,9.0,WSW,11.5,-,N/A,,Overcast,240,2013-02-28 04:00:00
11:53 PM,30.9,28.9,92,29.70,10.0,WSW,13.8,-,N/A,,Overcast,240,2013-02-28 04:53:00